Location: *
(40.7873°S, 98.7174°E)
Time: 03:14:53
(UTC+00:00)

Cosmos 1153 Rocket - Visible Passes

Search period start: 07 October 2022 00:00
Search period end: 17 October 2022 00:00
Orbit: 953 x 1006 km, 82.9° (Epoch: 06 October)

Date Brightness Start Highest point End Pass type
(mag) Time Alt. Az. Time Alt. Az. Time Alt. Az.
07 Oct 5.8 18:38:59 10° S 18:43:31 34° SE 18:43:31 34° SE visible
07 Oct 5.6 20:24:38 10° SSW 20:28:15 27° WSW 20:28:15 27° WSW visible
08 Oct 5.3 19:05:22 10° S 19:09:48 47° SSE 19:09:48 47° SSE visible
08 Oct 6.2 20:52:31 10° SW 20:54:33 15° WSW 20:54:33 15° WSW visible
09 Oct 6.6 17:48:00 10° SSE 17:51:23 18° ESE 17:51:23 18° ESE visible
09 Oct 5.3 19:32:04 10° SSW 19:36:08 42° SSW 19:36:08 42° SSW visible
10 Oct 6.0 18:13:43 10° S 18:17:44 30° SE 18:17:44 30° SE visible
10 Oct 5.7 19:59:10 10° SSW 20:02:29 27° SW 20:02:29 27° SW visible
11 Oct 5.5 18:40:01 10° S 18:44:06 41° SSE 18:44:06 41° SSE visible
11 Oct 6.2 20:26:54 10° SW 20:28:51 16° WSW 20:28:51 16° WSW visible
12 Oct 6.7 17:22:50 10° SSE 17:25:45 16° SE 17:25:45 16° SE visible
12 Oct 5.4 19:06:41 10° SSW 19:10:29 39° SSW 19:10:29 39° SSW visible
13 Oct 6.2 17:48:26 10° SSE 17:52:09 27° SE 17:52:09 27° SE visible
13 Oct 5.8 19:33:42 10° SSW 19:36:53 27° SW 19:36:53 27° SW visible
14 Oct 5.7 18:14:39 10° S 18:18:34 38° SSE 18:18:34 38° SSE visible
14 Oct 6.3 20:01:18 10° SW 20:03:18 17° SW 20:03:18 17° SW visible
15 Oct 6.7 16:57:44 10° SSE 17:00:15 15° SE 17:00:15 15° SE visible
15 Oct 5.5 18:41:17 10° S 18:45:00 39° SSW 18:45:00 39° SSW visible
16 Oct 6.2 17:23:09 10° SSE 17:26:41 25° SE 17:26:41 25° SE visible
16 Oct 5.8 19:08:15 10° SSW 19:11:26 28° SW 19:11:26 28° SW visible
